Regional Weather Roundup
Issued by NWS

Home | Current Version | Previous Version | Text Only | Print | Product List | Glossary Off
Versions: 1 2 3 4 5 6 7 8 9 10 11 12 13 14 15 16 17 18 19 20 21 22 23 24 25 26 27 28 29 30 31 32 33 34 35 36 37 38 39 40 41 42 43 44 45 46 47 48 49 50

000
ASUS43 KBIS 201210
RWRND

NORTH DAKOTA REGIONAL WEATHER ROUNDUP
NATIONAL WEATHER SERVICE BISMARCK ND
700 AM CDT SAT SEP 20 2014

NOTE: "FAIR" INDICATES FEW OR NO CLOUDS BELOW 12,000 FEET WITH NO
SIGNIFICANT WEATHER AND/OR OBSTRUCTIONS TO VISIBILITY.


NDZ001>003-009>011-017-201300-
NORTHWEST NORTH DAKOTA

CITY           SKY/WX    TMP DP  RH WIND       PRES   REMARKS
WILLISTON      CLOUDY    54  51  90 SW9       29.85S
6HR MIN TEMP:  47; 6HR MAX TEMP:  55; 6HR PCP: TRACE;

MINOT          PTCLDY    56  51  84 SW14      29.80S
MINOT AFB      MOCLDY    55  55  98 W10       29.80R
$$

NDZ018>021-031>035-040>046-201300-
SOUTHWEST NORTH DAKOTA

CITY           SKY/WX    TMP DP  RH WIND       PRES   REMARKS
BISMARCK       PTCLDY    53  50  89 W3        29.87R
6HR MIN TEMP:  51; 6HR MAX TEMP:  60;

DICKINSON      PTCLDY    53  47  79 W10       29.89S
GARRISON         N/A     54  52  93 W3        29.84S
6HR MIN TEMP:  50; 6HR MAX TEMP:  56;

HETTINGER ARPT CLEAR     52  46  80 W9        29.94F
$$

NDZ004>008-012>016-024-026-027-054-201300-
NORTHEAST NORTH DAKOTA

CITY           SKY/WX    TMP DP  RH WIND       PRES   REMARKS
GRAND FORKS    CLOUDY    51  50  96 SW5       29.79R
GRND FRKS AFB  CLOUDY    50  50 100 SW3       29.80R
DEVILS LAKE    CLEAR     54  48  82 W9        29.78R
$$

NDZ022-023-025-028>030-036>039-047>053-201300-
SOUTHEAST NORTH DAKOTA

CITY           SKY/WX    TMP DP  RH WIND       PRES   REMARKS
FARGO          PTCLDY    51  50  96 SW3       29.81R
6HR MIN TEMP:  50; 6HR MAX TEMP:  61;

JAMESTOWN      CLEAR     52  51  97 W6        29.82S
$$



USA.gov is the U.S. government's official web portal to all federal, state and local government web resources and services.